www.pogodaiklimat.ru
Время
и дата
14:54 30.12
15:40 30.12
15:54 30.12
16:54 30.12
17:54 30.12
18:54 30.12
19:54 30.12
20:54 30.12
21:54 30.12
22:54 30.12
23:49 30.12
23:54 30.12
00:03 31.12
00:54 31.12
01:54 31.12
02:54 31.12
03:54 31.12
04:54 31.12
05:02 31.12
05:22 31.12
05:54 31.12
06:43 31.12
06:54 31.12
07:51 31.12
07:54 31.12
08:15 31.12
08:26 31.12
08:38 31.12
08:54 31.12
09:25 31.12
09:54 31.12
10:20 31.12
10:49 31.12
10:54 31.12
11:29 31.12
11:47 31.12
11:54 31.12
12:24 31.12
12:54 31.12
13:02 31.12
13:07 31.12
13:29 31.12
13:49 31.12
13:54 31.12
14:21 31.12
14:50 31.12
14:54 31.12
15:07 31.01
Ветер
(напр.,м/с)
Видим. Явления Облачность Т
(С)
Тd
(С)
f
(%)
Тe
(С)
Тes
(С)
Комфортность P
(гПа)
Po
(гПа)
Тmin
(С)
Tmax
(С)
R
(мм)
R24
(мм)
S
(см)
СЗ 1 10 км мгла 10/2 510 м
[Ac]
+11.7 +7.8 77 +10 +11 1010.9 992.6
С 2 10 км мгла 10/8 480 м
[Ac]
+11.1 +8.3 83 +8 +8 992.6
С 2 10 км мгла 10/10 480 м +11.1 +7.8 80 +9 +9 1010.9 992.6 +8.3 +11.7
СЗ 2 10 км мгла 10/10 510 м +10.6 +7.8 83 +8 +8 1011.0 992.6
СЗ 2 10 км дымка 10/10 780 м +10.0 +7.8 86 +7 +7 1011.2 992.9
С 2 10 км дымка 10/10 570 м +9.4 +7.2 86 +6 +6 1011.7 993.3
С 1 8 км слабый дождь, дымка 10/10 660 м +9.4 +7.8 90 +8 +8 1011.5 992.9
штиль 0 10 км дымка 10/10 720 м +9.4 +7.2 86 +9 +9 1011.2 992.9
З 1 10 км дымка 10/10 360 м +9.4 +7.2 86 +8 +8 1011.4 992.9 +9.4 +11.1
штиль 0 10 км дымка 10/10 780 м +9.4 +7.2 86 +9 +9 1011.5 992.9
З 1 10 км дымка 10/10 390 м +9.0 +7.0 87 +7 +7 992.9
З 1 10 км дымка 10/10 390 м +9.4 +7.2 86 +8 +8 1011.5 992.9
З 1 10 км дымка 10/10 390 м +9.4 +7.2 86 +8 +8 992.9
штиль 0 8 км дымка 10/10 840 м +8.9 +7.2 89 +8 +8 1010.9 992.6
штиль 0 8 км дымка 10/10 810 м +8.9 +7.2 89 +8 +8 1010.7 992.3
штиль 0 6 км дымка 10/10 870 м +9.4 +7.8 90 +9 +9 1010.3 991.9
СЗ 1 6 км дымка 10/10 420 м +8.9 +7.2 89 +7 +7 1009.8 991.3 +8.9 +9.4 0.8
СЗ 1 8 км дымка 10/10 360 м +8.9 +7.2 89 +7 +7 1009.8 991.3
СЗ 1 8 км дымка 10/10 360 м +8.9 +7.8 93 +7 +7 991.3
СЗ 1 6 км дымка 10/10 900 м +8.9 +7.8 93 +7 +7 991.3
С 1 8 км дымка 10/10 930 м +8.3 +7.2 93 +6 +6 1009.7 991.3
С 1 8 км дымка 10/10 270 м +8.3 +6.7 90 +6 +6 991.6
С 2 6 км дымка 10/10 210 м +8.3 +6.7 90 +5 +5 1009.9 991.6
СЗ 1 4 км дымка 10/10 150 м +8.0 +7.0 93 +5 +5 991.6
СЗ 1 4 км дымка 10/10 150 м +7.8 +7.2 96 +5 +5 1009.9 991.6
СЗ 1 4 км дымка 10/10 120 м +7.8 +7.2 96 +5 +5 991.6
СЗ 1 4 км дымка 10/10 150 м +8.3 +7.2 93 +6 +6 991.9
СЗ 1 3 км дымка 10/10 120 м +8.3 +7.2 93 +6 +6 991.9
СЗ 1 3 км дымка 10/10 120 м +8.3 +7.2 93 +6 +6 1010.2 991.9
З 1 4 км дымка 10/10 180 м +8.3 +7.2 93 +6 +6 991.9
СЗ 1 5 км дымка 10/10 180 м +8.3 +7.2 93 +6 +6 1010.8 992.3 +7.8 +8.9
З 2 4 км дымка 10/10 210 м +8.3 +7.2 93 +5 +5 992.6
З 2 4 км дымка 10/10 120 м +8.0 +7.0 93 +4 +4 992.3
З 2 4 км дымка 10/10 120 м +7.8 +6.7 93 +4 +4 1010.8 992.3
З 1 5 км дымка 10/10 120 м +8.3 +7.2 93 +6 +6 991.6
СЗ 2 5 км дымка 10/10 180 м +8.3 +7.2 93 +5 +5 991.6
СЗ 2 5 км дымка 10/10 180 м +8.3 +7.2 93 +5 +5 1009.9 991.6
СЗ 2 3 км слабый дождь, дымка 10/10 210 м +8.3 +7.2 93 +5 +5 991.6
СЗ 2 4 км дымка 10/10 330 м +8.3 +7.2 93 +5 +5 1009.7 991.3
СЗ 2 5 км дымка 10/10 240 м +8.9 +6.7 86 +6 +6 991.3
СЗ 2 5 км дымка 10/10 300 м +8.9 +7.2 89 +5 +5 991.3
СЗ 2 6 км дымка 10/10 390 м +8.9 +6.7 86 +5 +5 991.3
С 2 6 км мгла 10/10 450 м +9.0 +7.0 87 +6 +6 991.3
СЗ 2 6 км дымка 10/10 450 м +8.9 +6.7 86 +5 +5 1009.8 991.6
СЗ 2 8 км дымка 10/10 390 м +8.9 +6.7 86 +5 +5 991.3
СЗ 2 8 км дымка 10/10 330 м +9.0 +7.0 87 +6 +6 991.6
СЗ 2 8 км дымка 10/10 450 м +8.9 +6.7 86 +5 +5 1009.9 991.6
С 2 8 км дымка 10/10 450 м +8.9 +6.7 86 +6 +6 991.6
Местоположение метеостанции Meadows Field Airport: широта 35.4336 долгота -119.0567 высота над уровнем моря 155 м.
В архиве по умолчанию представлена погода в Бейкерсфилде за последние 1-2 суток. Обновление информации о фактической погоде в базе происходит ежечасно! Архивные данные за месяц целиком и за предыдущие месяцы Вы можете получить, выбрав интересующий диапазон дат из раскрывающегося списка и нажав кнопку "Ввод!".
Внимание! Архив погоды МЕТАР в базе сайта по станциям, не включенным в климатический монитор, хранится не более 60 дней. Нет смысла пытаться выбрать более раннюю дату.
*Определитесь, кто Вы:
Внимание! Время в таблицах - местное (без учета летнего времени). Для получения всемирного времени необходимо вычесть поправку, которая равна -8 ч.
Смотрите также архив погоды в соседних городах и на ближайших метеорологических станциях:
Партнеры нашего сайта:      
Пояснения к столбцам:
  • Ветер - указаны скорость ветра в м/с - средняя за 10 мин, порывы в срок и между сроками (в фигурных скобках) и направление, откуда дует ветер: С - северный,
  • СВ - северо-восточный, В - восточный, ЮВ - юго-восточный, Ю - южный, ЮЗ - юго-западный, З - западный, СЗ - северо-западный.
  • Видимость - горизонтальная дальность видимости в метрах или километрах. При видимости от 1 до 10 км при отсутствии осадков обычно наблюдается дымка, при ухудшении видимости до 1 км и менее - туман. В сухую погоду видимость может ухудшаться дымом, пылью или мглою.
  • Явления - указаны атмосферные явления, наблюдавшиеся в срок или в последний час перед сроком; фигурными скобками обозначены явления, наблюдавшиеся между сроками (за 1-3 часа до срока); квадратными скобками обозначены град или гололедные отложения с указанием их диаметра в мм.
  • Облачность - указаны через наклонную черту общая и нижняя облачность в баллах и высота нижней границы облаков в метрах; квадратными скобками обозначены формы облаков: Ci - перистые, Cs - перисто-слоистые, Cc - перисто-кучевые, Ac - высококучевые, As - высокослоистые, Sc - слоисто-кучевые, Ns - слоисто-дождевые, Cu - кучевые, Cb - кучево-дождевые. Подробнее классификацию облаков см. в Атласе облаков (PDF).
  • T - Температура воздуха - температура, измеренная на высоте 2 м над землей.
  • Td - Температура точки росы - температура, при понижении до которой содержащийся в воздухе водяной пар достигнет насыщения.
  • f - Относительная влажность воздуха - влажноcть воздуха, измеренная на высоте 2 м над землей.
  • Te - Эффективная температура - температура, которую ощущает одетый по сезону человек в тени. Характеристика душности погоды. При расчете учитывается влияние влажности воздуха и скорости ветра на теплоощущения человека.
  • Tes - Эффективная температура на солнце - температура, которую ощущает человек, с поправкой на солнечный нагрев. Характеристика знойности погоды. Зависит от высоты солнца над горизонтом, облачности и скорости ветра. Ночью, в пасмурную погоду, а также при ветре 12 м/с и более поправка равна нулю.
  • P - Атмосферное давление - приведенное к уровню моря атмосферное давление.
  • Po - Атмосферное давление - измеренное на уровне метеостанции атмосферное давление.
  • Tmin - Минимальная температура - минимум температуры воздуха на высоте 2 м над землей.
  • Tmax - Максимальная температура - максимум температуры воздуха на высоте 2 м над землей.
  • R - Количество осадков - Количество выпавших осадков за период времени, мм. При наведении курсора мыши на число - период времени, за который выпало указанное количество осадков.
  • R24 - Количество осадков - Количество выпавших осадков за 24 часа, мм.
  • S - Снежный покров - Высота снежного покрова, см. При наведении курсора мыши на число - состояние снежного покрова и степень покрытия местности в баллах.